Theta_e
316 318 316 316 314 313 313 312 313 312 311 312 313 313 312 311 311 311 311 310 309 309
317 317 316 315 315 314 314 314 313 313 312 312 312 312 311 310 310 310 310 310 310 308
318 318 317 317 315 315 314 315 314 313 313 313 312 312 310 309 310 309 310 311 309 309
319 318 317 318 316 315 314 315 314 314 314 313 312 311 310 309 309 309 309 309 309 309
319 318 317 316 316 315 315 315 315 315 314 314 313 311 309 309 310 309 308 309 309 309
318 318 317 317 316 316 315 315 315 314 313 313 312 311 309 309 309 308 308 308 307 308
319 319 318 317 316 316 316 315 313 313 313 313 311 310 310 309 308 307 307 307 307 307
320 319 318 317 316 316 314 314 314 313 311 309 309 309 307 307 305 303 303 303 305 306
319 318 317 315 314 314 313 312 310 309 308 306 307 306 306 307 303 302 301 302 303 304
318 317 315 314 314 312 308 306 305 304 304 303 302 302 302 304 302 300 300 300 301 302
316 314 313 312 308 304 303 303 301 301 301 300 301 301 300 301 299 299 299 300 301 300
314 311 308 305 303 301 300 299 299 300 299 298 298 299 299 299 298 298 299 300 300 300
307 305 303 302 301 299 299 299 299 299 298 300 298 298 298 298 297 296 296 296 297 300
305 303 301 300 299 298 298 298 296 296 296 296 297 297 297 297 296 295 295 296 296 297
Wind_Speed
10 8 6 8 6 6 5 4 5 5 5 4 3 1 1 0 2 2 3 5 4 3
10 10 8 8 7 5 5 4 6 6 5 4 1 1 1 2 4 2 3 5 5 4
9 7 7 8 8 8 6 6 7 6 5 4 2 3 2 2 4 3 4 4 5 5
9 8 7 8 7 7 7 7 7 6 5 4 4 4 3 4 5 5 5 4 5 7
10 10 9 7 7 8 8 7 7 6 5 5 6 5 5 6 5 5 6 6 5 7
11 11 10 9 8 8 7 7 6 6 6 6 6 6 6 6 6 5 5 5 5 6
12 12 10 9 8 8 8 7 6 6 6 6 5 4 5 4 5 5 5 5 6 7
11 9 8 8 7 6 5 5 5 4 4 3 3 3 4 5 5 6 6 7 8 8
10 9 8 7 6 6 5 5 4 4 2 1 2 5 7 6 6 6 6 8 7 8
7 8 7 7 7 7 7 6 5 4 3 2 4 7 9 12 6 5 6 8 8 9
6 6 7 7 7 6 5 6 5 3 2 3 5 9 12 13 7 6 8 8 10 11
10 8 8 8 7 5 5 3 1 3 3 4 6 10 12 11 7 7 9 9 9 11
7 9 9 8 7 3 3 3 2 4 5 7 7 9 13 11 5 8 8 7 11 17
8 8 7 6 3 4 3 3 4 4 4 5 5 8 14 14 7 7 8 9 10 9
Wind_Direction
154 166 158 158 154 165 156 163 158 140 137 151 152 157 103 246 266 242 258 270 248 250
157 156 165 158 148 149 145 154 163 158 157 159 182 267 244 250 277 262 267 263 267 251
157 147 152 149 151 155 150 158 162 166 174 182 203 242 250 265 273 264 265 252 262 255
155 154 150 156 149 159 154 165 172 184 183 194 222 240 243 254 261 257 269 260 249 263
152 148 149 156 164 162 173 176 182 185 189 208 226 229 231 255 257 255 267 268 265 262
153 157 166 174 173 175 174 182 185 182 199 214 230 236 238 237 256 259 260 269 268 265
167 176 175 175 183 182 183 180 178 194 208 226 246 256 269 274 275 269 254 257 255 257
169 166 164 176 184 181 164 154 179 186 222 256 284 277 289 279 273 263 262 257 258 259
159 161 173 163 155 137 147 147 153 182 198 261 275 287 290 279 265 262 260 269 260 248
152 159 155 133 141 150 150 144 139 131 142 250 277 279 276 277 271 262 257 262 267 271
106 109 117 125 133 127 131 142 151 167 230 264 278 271 272 273 272 261 257 255 261 264
144 144 138 131 134 139 131 107 166 214 240 248 269 269 269 274 270 264 261 257 256 259
110 127 121 130 132 112 106 176 207 250 240 248 256 272 268 268 259 266 278 272 268 264
68 93 95 99 87 126 163 201 233 241 266 267 266 265 259 261 275 276 286 285 284 279